Time,TemperatureF,DewpointF,PressureIn,WindDirection,WindDirectionDegrees,WindSpeedMPH,WindSpeedGustMPH,Humidity,HourlyPrecipIn,Conditions,Clouds,dailyrainin,SolarRadiationWatts/m^2,SoftwareType,DateUTC
2013-03-20 04:21:00,37.4,15.8,29.89,SW,215,7.0,7.0,41,0.00,,,0.00,0,Wunderground v.1.15,2013-03-20 10:21:00,
2013-03-20 04:26:00,37.6,16.5,29.89,SSW,206,4.0,14.0,42,0.00,,,0.00,0,Wunderground v.1.15,2013-03-20 10:26:00,
2013-03-20 04:31:00,37.7,16.1,29.89,SSW,196,8.0,12.0,41,0.00,,,0.00,0,Wunderground v.1.15,2013-03-20 10:31:00,
2013-03-20 04:36:00,38.0,16.4,29.88,SSW,200,9.0,16.0,41,0.00,,,0.00,0,Wunderground v.1.15,2013-03-20 10:36:00,
2013-03-20 04:41:00,38.2,16.5,29.88,SSW,206,11.0,13.0,41,0.00,,,0.00,0,Wunderground v.1.15,2013-03-20 10:41:00,
2013-03-20 04:46:00,38.4,16.1,29.88,SW,229,12.0,15.0,40,0.00,,,0.00,0,Wunderground v.1.15,2013-03-20 10:46:00,
2013-03-20 04:51:00,38.5,16.2,29.87,SW,219,7.0,10.0,40,0.00,,,0.00,0,Wunderground v.1.15,2013-03-20 10:51:00,
2013-03-20 04:56:00,38.3,16.6,29.87,SSW,212,11.0,11.0,41,0.00,,,0.00,0,Wunderground v.1.15,2013-03-20 10:56:00,
2013-03-20 05:02:00,38.2,16.5,29.87,South,186,6.0,10.0,41,0.00,,,0.00,0,Wunderground v.1.15,2013-03-20 11:02:00,
2013-03-20 05:07:00,38.2,16.5,29.86,SSW,202,4.0,10.0,41,0.00,,,0.00,0,Wunderground v.1.15,2013-03-20 11:07:00,
2013-03-20 05:12:00,38.1,16.4,29.86,SSW,206,1.0,9.0,41,0.00,,,0.00,0,Wunderground v.1.15,2013-03-20 11:12:00,
2013-03-20 05:17:00,38.0,16.9,29.86,South,186,10.0,13.0,42,0.00,,,0.00,0,Wunderground v.1.15,2013-03-20 11:17:00,
2013-03-20 05:22:00,38.0,16.9,29.85,South,180,4.0,9.0,42,0.00,,,0.00,0,Wunderground v.1.15,2013-03-20 11:22:00,
2013-03-20 05:27:00,37.9,16.8,29.85,South,182,7.0,13.0,42,0.00,,,0.00,0,Wunderground v.1.15,2013-03-20 11:27:00,
2013-03-20 05:32:00,37.8,16.2,29.84,SW,226,11.0,12.0,41,0.00,,,0.00,0,Wunderground v.1.15,2013-03-20 11:32:00,
2013-03-20 05:37:00,38.0,15.8,29.84,SSW,208,5.0,13.0,40,0.00,,,0.00,0,Wunderground v.1.15,2013-03-20 11:37:00,
2013-03-20 05:42:00,38.1,15.9,29.84,SW,233,4.0,13.0,40,0.00,,,0.00,0,Wunderground v.1.15,2013-03-20 11:42:00,
2013-03-20 05:47:00,38.0,15.8,29.83,SW,229,9.0,13.0,40,0.00,,,0.00,0,Wunderground v.1.15,2013-03-20 11:47:00,
2013-03-20 05:52:00,38.1,15.9,29.83,SW,217,9.0,15.0,40,0.00,,,0.00,0,Wunderground v.1.15,2013-03-20 11:52:00,
2013-03-20 05:57:00,38.0,16.4,29.83,SSW,192,6.0,16.0,41,0.00,,,0.00,0,Wunderground v.1.15,2013-03-20 11:57:00,
2013-03-20 06:02:00,37.9,16.3,29.82,SW,223,7.0,12.0,41,0.00,,,0.00,0,Wunderground v.1.15,2013-03-20 12:02:00,
2013-03-20 06:07:00,38.1,15.9,29.82,SSW,205,7.0,18.0,40,0.00,,,0.00,0,Wunderground v.1.15,2013-03-20 12:07:00,
2013-03-20 06:12:00,38.2,16.5,29.82,SSW,198,9.0,14.0,41,0.00,,,0.00,0,Wunderground v.1.15,2013-03-20 12:12:00,
2013-03-20 06:17:00,38.0,16.4,29.82,SSW,205,6.0,14.0,41,0.00,,,0.00,0,Wunderground v.1.15,2013-03-20 12:17:00,
2013-03-20 06:22:00,37.9,16.8,29.82,South,180,12.0,14.0,42,0.00,,,0.00,0,Wunderground v.1.15,2013-03-20 12:22:00,
2013-03-20 06:27:00,37.9,16.8,29.82,SSW,203,8.0,18.0,42,0.00,,,0.00,0,Wunderground v.1.15,2013-03-20 12:27:00,
2013-03-20 06:32:00,38.0,16.4,29.80,SSW,195,9.0,19.0,41,0.00,,,0.00,0,Wunderground v.1.15,2013-03-20 12:32:00,
2013-03-20 06:38:00,38.2,16.5,29.80,SSW,207,14.0,19.0,41,0.00,,,0.00,0,Wunderground v.1.15,2013-03-20 12:38:00,
2013-03-20 06:43:00,38.2,16.5,29.80,South,182,8.0,15.0,41,0.00,,,0.00,0,Wunderground v.1.15,2013-03-20 12:43:00,
2013-03-20 06:48:00,38.0,16.9,29.80,SSW,194,7.0,15.0,42,0.00,,,0.00,0,Wunderground v.1.15,2013-03-20 12:48:00,
2013-03-20 06:53:00,38.1,16.4,29.80,South,176,5.0,16.0,41,0.00,,,0.00,0,Wunderground v.1.15,2013-03-20 12:53:00,
2013-03-20 06:58:00,39.0,16.7,29.80,SSW,198,9.0,18.0,40,0.00,,,0.00,0,Wunderground v.1.15,2013-03-20 12:58:00,
2013-03-20 07:03:00,39.5,18.3,29.80,South,185,6.0,19.0,42,0.00,,,0.00,0,Wunderground v.1.15,2013-03-20 13:03:00,
2013-03-20 07:08:00,39.5,18.3,29.80,South,183,8.0,23.0,42,0.00,,,0.00,0,Wunderground v.1.15,2013-03-20 13:08:00,
2013-03-20 07:13:00,39.5,19.4,29.80,SSE,149,9.0,16.0,44,0.00,,,0.00,0,Wunderground v.1.15,2013-03-20 13:13:00,
2013-03-20 07:18:00,39.5,20.4,29.80,South,178,8.0,19.0,46,0.00,,,0.00,0,Wunderground v.1.15,2013-03-20 13:18:00,
2013-03-20 07:23:00,39.4,21.3,29.80,South,178,9.0,16.0,48,0.00,,,0.00,0,Wunderground v.1.15,2013-03-20 13:23:00,
2013-03-20 07:28:00,39.3,22.2,29.80,SSE,167,10.0,18.0,50,0.00,,,0.00,0,Wunderground v.1.15,2013-03-20 13:28:00,
2013-03-20 07:33:00,39.1,22.5,29.79,SE,142,13.0,17.0,51,0.00,,,0.00,0,Wunderground v.1.15,2013-03-20 13:33:00,
2013-03-20 07:38:00,39.1,22.5,29.79,SSE,155,12.0,17.0,51,0.00,,,0.00,0,Wunderground v.1.15,2013-03-20 13:38:00,
2013-03-20 07:43:00,39.1,22.9,29.79,SSE,148,10.0,14.0,52,0.00,,,0.00,0,Wunderground v.1.15,2013-03-20 13:43:00,
2013-03-20 07:48:00,39.0,22.8,29.79,South,190,7.0,19.0,52,0.00,,,0.00,0,Wunderground v.1.15,2013-03-20 13:48:00,
2013-03-20 07:53:00,38.9,22.8,29.79,South,169,10.0,20.0,52,0.00,,,0.00,5,Wunderground v.1.15,2013-03-20 13:53:00,
2013-03-20 07:58:00,38.9,23.7,29.79,South,171,5.0,20.0,54,0.00,,,0.00,7,Wunderground v.1.15,2013-03-20 13:58:00,
2013-03-20 08:03:00,39.1,23.8,29.78,South,169,13.0,20.0,54,0.00,,,0.00,7,Wunderground v.1.15,2013-03-20 14:03:00,
2013-03-20 08:08:00,39.3,24.5,29.78,South,187,6.0,20.0,55,0.00,,,0.00,9,Wunderground v.1.15,2013-03-20 14:08:00,
2013-03-20 08:13:00,39.3,24.9,29.78,South,175,13.0,17.0,56,0.00,,,0.00,11,Wunderground v.1.15,2013-03-20 14:13:00,
2013-03-20 08:18:00,39.4,25.0,29.78,SSE,158,21.0,21.0,56,0.00,,,0.00,14,Wunderground v.1.15,2013-03-20 14:18:00,
2013-03-20 08:24:00,39.3,24.9,29.78,SSE,162,13.0,19.0,56,0.00,,,0.00,16,Wunderground v.1.15,2013-03-20 14:24:00,
2013-03-20 08:29:00,39.1,24.7,29.78,SSW,196,9.0,19.0,56,0.00,,,0.00,19,Wunderground v.1.15,2013-03-20 14:29:00,
2013-03-20 08:34:00,39.2,25.2,29.79,SSE,158,10.0,21.0,57,0.00,,,0.00,23,Wunderground v.1.15,2013-03-20 14:34:00,
2013-03-20 08:39:00,39.1,25.6,29.79,SE,139,11.0,21.0,58,0.00,,,0.00,28,Wunderground v.1.15,2013-03-20 14:39:00,
2013-03-20 08:44:00,39.0,25.5,29.79,South,182,7.0,19.0,58,0.00,,,0.00,28,Wunderground v.1.15,2013-03-20 14:44:00,
2013-03-20 08:49:00,38.9,25.8,29.78,SSE,167,11.0,20.0,59,0.00,,,0.00,26,Wunderground v.1.15,2013-03-20 14:49:00,
2013-03-20 08:54:00,38.8,26.1,29.78,South,180,10.0,20.0,60,0.00,,,0.00,30,Wunderground v.1.15,2013-03-20 14:54:00,
2013-03-20 08:59:00,38.8,26.1,29.78,SE,144,15.0,21.0,60,0.00,,,0.00,46,Wunderground v.1.15,2013-03-20 14:59:00,
2013-03-20 09:04:00,38.8,26.1,29.78,SSE,155,11.0,20.0,60,0.00,,,0.00,53,Wunderground v.1.15,2013-03-20 15:04:00,
2013-03-20 09:09:00,38.9,26.6,29.78,SSE,165,7.0,20.0,61,0.00,,,0.00,51,Wunderground v.1.15,2013-03-20 15:09:00,
2013-03-20 09:14:00,38.9,26.6,29.78,South,191,11.0,19.0,61,0.00,,,0.00,56,Wunderground v.1.15,2013-03-20 15:14:00,
2013-03-20 09:19:00,38.9,26.6,29.77,South,171,11.0,19.0,61,0.00,,,0.00,69,Wunderground v.1.15,2013-03-20 15:19:00,
2013-03-20 09:24:00,39.0,26.7,29.77,SSE,153,4.0,22.0,61,0.00,,,0.00,88,Wunderground v.1.15,2013-03-20 15:24:00,
2013-03-20 09:29:00,39.1,26.8,29.77,SE,136,16.0,22.0,61,0.00,,,0.00,102,Wunderground v.1.15,2013-03-20 15:29:00,
2013-03-20 09:34:00,39.0,26.7,29.76,SSE,163,10.0,21.0,61,0.00,,,0.00,120,Wunderground v.1.15,2013-03-20 15:34:00,
2013-03-20 09:39:00,39.1,27.2,29.76,SSE,150,14.0,21.0,62,0.00,,,0.00,127,Wunderground v.1.15,2013-03-20 15:39:00,
2013-03-20 09:44:00,39.1,27.2,29.76,SSE,148,10.0,20.0,62,0.00,,,0.00,121,Wunderground v.1.15,2013-03-20 15:44:00,
2013-03-20 09:49:00,39.2,27.7,29.75,South,189,14.0,20.0,63,0.00,,,0.00,144,Wunderground v.1.15,2013-03-20 15:49:00,
2013-03-20 09:54:00,39.3,27.7,29.75,South,183,7.0,17.0,63,0.00,,,0.00,135,Wunderground v.1.15,2013-03-20 15:54:00,
2013-03-20 09:59:00,39.5,27.9,29.75,South,172,5.0,19.0,63,0.00,,,0.00,113,Wunderground v.1.15,2013-03-20 15:59:00,
2013-03-20 10:04:00,39.6,28.4,29.75,SSW,213,14.0,17.0,64,0.00,,,0.00,114,Wunderground v.1.15,2013-03-20 16:04:00,
2013-03-20 10:09:00,39.8,28.6,29.75,SSE,161,8.0,17.0,64,0.00,,,0.00,116,Wunderground v.1.15,2013-03-20 16:09:00,
2013-03-20 10:14:00,40.2,28.6,29.75,South,182,13.0,23.0,63,0.00,,,0.00,128,Wunderground v.1.15,2013-03-20 16:14:00,
2013-03-20 10:19:00,40.7,28.7,29.74,SSE,164,10.0,23.0,62,0.00,,,0.00,167,Wunderground v.1.15,2013-03-20 16:19:00,
2013-03-20 10:24:00,41.2,28.8,29.74,SSE,163,24.0,24.0,61,0.00,,,0.00,190,Wunderground v.1.15,2013-03-20 16:24:00,
2013-03-20 10:29:00,41.7,28.8,29.74,SE,141,16.0,24.0,60,0.00,,,0.00,232,Wunderground v.1.15,2013-03-20 16:29:00,
2013-03-20 10:34:00,42.2,28.9,29.73,South,171,20.0,23.0,59,0.00,,,0.00,322,Wunderground v.1.15,2013-03-20 16:34:00,
2013-03-20 10:39:00,42.7,28.9,29.73,South,177,13.0,23.0,58,0.00,,,0.00,292,Wunderground v.1.15,2013-03-20 16:39:00,
2013-03-20 10:44:00,43.3,28.6,29.73,South,188,10.0,25.0,56,0.00,,,0.00,276,Wunderground v.1.15,2013-03-20 16:44:00,
2013-03-20 10:49:00,43.4,28.7,29.71,SSE,150,5.0,25.0,56,0.00,,,0.00,313,Wunderground v.1.15,2013-03-20 16:49:00,
2013-03-20 10:54:00,43.9,28.8,29.71,South,183,14.0,25.0,55,0.00,,,0.00,341,Wunderground v.1.15,2013-03-20 16:54:00,
2013-03-20 10:59:00,44.3,28.7,29.71,South,181,21.0,21.0,54,0.00,,,0.00,341,Wunderground v.1.15,2013-03-20 16:59:00,
2013-03-20 11:04:00,44.7,29.1,29.71,South,190,19.0,26.0,54,0.00,,,0.00,385,Wunderground v.1.15,2013-03-20 17:04:00,
2013-03-20 11:09:00,45.0,28.9,29.71,ESE,115,8.0,14.0,53,0.00,,,0.00,315,Wunderground v.1.15,2013-03-20 17:09:00,
2013-03-20 11:14:00,45.0,28.9,29.71,SSE,155,9.0,25.0,53,0.00,,,0.00,267,Wunderground v.1.15,2013-03-20 17:14:00,
2013-03-20 11:19:00,44.8,29.2,29.70,South,178,9.0,25.0,54,0.00,,,0.00,274,Wunderground v.1.15,2013-03-20 17:19:00,
2013-03-20 11:24:00,44.7,29.1,29.70,South,188,12.0,24.0,54,0.00,,,0.00,352,Wunderground v.1.15,2013-03-20 17:24:00,
2013-03-20 11:29:00,44.9,28.8,29.70,South,171,9.0,16.0,53,0.00,,,0.00,306,Wunderground v.1.15,2013-03-20 17:29:00,
2013-03-20 11:35:00,45.1,29.4,29.69,SSE,161,9.0,24.0,54,0.00,,,0.00,346,Wunderground v.1.15,2013-03-20 17:35:00,
2013-03-20 11:39:00,46.0,29.3,29.69,South,183,14.0,18.0,52,0.00,,,0.00,515,Wunderground v.1.15,2013-03-20 17:39:00,
2013-03-20 11:44:00,46.4,29.7,29.69,SSE,159,8.0,26.0,52,0.00,,,0.00,772,Wunderground v.1.15,2013-03-20 17:44:00,
2013-03-20 11:49:00,47.3,30.5,29.68,SSE,166,16.0,21.0,52,0.00,,,0.00,835,Wunderground v.1.15,2013-03-20 17:49:00,
2013-03-20 11:54:00,46.9,29.7,29.68,SE,144,16.0,29.0,51,0.00,,,0.00,325,Wunderground v.1.15,2013-03-20 17:54:00,
2013-03-20 11:59:00,46.3,29.6,29.68,South,169,23.0,23.0,52,0.00,,,0.00,278,Wunderground v.1.15,2013-03-20 17:59:00,
2013-03-20 12:04:00,45.8,29.6,29.68,SSE,155,15.0,28.0,53,0.00,,,0.00,360,Wunderground v.1.15,2013-03-20 18:04:00,
2013-03-20 12:09:00,46.7,30.9,29.68,South,189,25.0,33.0,54,0.00,,,0.00,932,Wunderground v.1.15,2013-03-20 18:09:00,
2013-03-20 12:14:00,46.9,30.2,29.68,South,181,17.0,33.0,52,0.00,,,0.00,439,Wunderground v.1.15,2013-03-20 18:14:00,
2013-03-20 12:19:00,46.9,30.2,29.67,SSE,160,13.0,17.0,52,0.00,,,0.00,454,Wunderground v.1.15,2013-03-20 18:19:00,
2013-03-20 12:24:00,47.4,30.6,29.67,SSE,168,17.0,29.0,52,0.00,,,0.00,874,Wunderground v.1.15,2013-03-20 18:24:00,
2013-03-20 12:29:00,47.1,30.4,29.67,South,190,15.0,17.0,52,0.00,,,0.00,360,Wunderground v.1.15,2013-03-20 18:29:00,
2013-03-20 12:34:00,46.7,30.5,29.67,SE,142,16.0,29.0,53,0.00,,,0.00,301,Wunderground v.1.15,2013-03-20 18:34:00,
2013-03-20 12:39:00,46.1,30.4,29.67,SSE,163,14.0,19.0,54,0.00,,,0.00,265,Wunderground v.1.15,2013-03-20 18:39:00,
2013-03-20 12:44:00,46.3,30.5,29.67,SSE,161,15.0,26.0,54,0.00,,,0.00,315,Wunderground v.1.15,2013-03-20 18:44:00,
2013-03-20 12:49:00,46.8,30.6,29.65,SE,142,11.0,18.0,53,0.00,,,0.00,292,Wunderground v.1.15,2013-03-20 18:49:00,
2013-03-20 12:54:00,46.8,30.6,29.65,South,173,15.0,29.0,53,0.00,,,0.00,265,Wunderground v.1.15,2013-03-20 18:54:00,
2013-03-20 12:59:00,46.9,31.1,29.65,SSE,150,19.0,19.0,54,0.00,,,0.00,271,Wunderground v.1.15,2013-03-20 18:59:00,
2013-03-20 13:04:00,47.0,31.2,29.65,SSE,155,19.0,27.0,54,0.00,,,0.00,304,Wunderground v.1.15,2013-03-20 19:04:00,
2013-03-20 13:09:00,47.2,30.9,29.65,SSE,150,14.0,17.0,53,0.00,,,0.00,352,Wunderground v.1.15,2013-03-20 19:09:00,
2013-03-20 13:15:00,47.7,31.4,29.65,SSE,153,14.0,27.0,53,0.00,,,0.00,554,Wunderground v.1.15,2013-03-20 19:15:00,
2013-03-20 13:20:00,48.3,31.5,29.64,SE,144,14.0,15.0,52,0.00,,,0.00,687,Wunderground v.1.15,2013-03-20 19:20:00,
2013-03-20 13:25:00,48.0,31.2,29.64,South,177,14.0,28.0,52,0.00,,,0.00,248,Wunderground v.1.15,2013-03-20 19:25:00,
2013-03-20 13:30:00,48.1,31.8,29.64,South,177,14.0,18.0,53,0.00,,,0.00,272,Wunderground v.1.15,2013-03-20 19:30:00,
2013-03-20 13:35:00,49.3,31.9,29.62,SSE,163,21.0,32.0,51,0.00,,,0.00,849,Wunderground v.1.15,2013-03-20 19:35:00,
2013-03-20 13:40:00,49.5,32.1,29.62,SE,142,27.0,27.0,51,0.00,,,0.00,429,Wunderground v.1.15,2013-03-20 19:40:00,
2013-03-20 13:45:00,50.4,32.4,29.62,SSE,157,16.0,28.0,50,0.00,,,0.00,336,Wunderground v.1.15,2013-03-20 19:45:00,
2013-03-20 13:50:00,50.5,32.5,29.61,SSE,167,20.0,21.0,50,0.00,,,0.00,875,Wunderground v.1.15,2013-03-20 19:50:00,
2013-03-20 13:55:00,50.8,32.3,29.61,SSE,158,19.0,28.0,49,0.00,,,0.00,879,Wunderground v.1.15,2013-03-20 19:55:00,
2013-03-20 14:00:00,51.1,33.1,29.61,South,170,14.0,21.0,50,0.00,,,0.00,499,Wunderground v.1.15,2013-03-20 20:00:00,
2013-03-20 14:05:00,51.4,32.9,29.60,SSE,150,16.0,28.0,49,0.00,,,0.00,570,Wunderground v.1.15,2013-03-20 20:05:00,
2013-03-20 14:10:00,51.0,32.5,29.60,SE,146,17.0,27.0,49,0.00,,,0.00,381,Wunderground v.1.15,2013-03-20 20:10:00,
2013-03-20 14:15:00,51.5,33.0,29.60,SSE,150,16.0,29.0,49,0.00,,,0.00,381,Wunderground v.1.15,2013-03-20 20:15:00,
2013-03-20 14:20:00,51.4,32.9,29.59,SSE,155,10.0,20.0,49,0.00,,,0.00,343,Wunderground v.1.15,2013-03-20 20:20:00,
2013-03-20 14:25:00,52.3,33.2,29.59,ESE,116,17.0,27.0,48,0.00,,,0.00,849,Wunderground v.1.15,2013-03-20 20:25:00,
2013-03-20 14:30:00,52.4,33.3,29.59,South,175,13.0,18.0,48,0.00,,,0.00,882,Wunderground v.1.15,2013-03-20 20:30:00,
2013-03-20 14:35:00,52.4,32.7,29.58,SSE,152,19.0,29.0,47,0.00,,,0.00,867,Wunderground v.1.15,2013-03-20 20:35:00,
2013-03-20 14:40:00,53.1,33.9,29.58,South,182,9.0,18.0,48,0.00,,,0.00,826,Wunderground v.1.15,2013-03-20 20:40:00,
2013-03-20 14:45:00,53.8,33.5,29.58,SE,140,18.0,27.0,46,0.00,,,0.00,759,Wunderground v.1.15,2013-03-20 20:45:00,
2013-03-20 14:50:00,54.0,33.1,29.57,SE,142,18.0,24.0,45,0.00,,,0.00,773,Wunderground v.1.15,2013-03-20 20:50:00,
2013-03-20 14:55:00,54.0,33.1,29.57,SSE,153,10.0,26.0,45,0.00,,,0.00,793,Wunderground v.1.15,2013-03-20 20:55:00,
2013-03-20 15:00:00,54.5,33.6,29.57,SSE,163,18.0,23.0,45,0.00,,,0.00,844,Wunderground v.1.15,2013-03-20 21:00:00,
2013-03-20 15:05:00,54.4,32.3,29.56,SSE,147,15.0,31.0,43,0.00,,,0.00,450,Wunderground v.1.15,2013-03-20 21:05:00,
2013-03-20 15:10:00,53.8,32.4,29.56,SE,129,20.0,22.0,44,0.00,,,0.00,236,Wunderground v.1.15,2013-03-20 21:10:00,
2013-03-20 15:15:00,53.1,32.8,29.56,SSE,148,22.0,28.0,46,0.00,,,0.00,265,Wunderground v.1.15,2013-03-20 21:15:00,
2013-03-20 15:20:00,53.0,33.3,29.54,SSE,155,14.0,22.0,47,0.00,,,0.00,406,Wunderground v.1.15,2013-03-20 21:20:00,
2013-03-20 15:25:00,54.1,29.0,29.54,SW,215,11.0,32.0,38,0.00,,,0.00,288,Wunderground v.1.15,2013-03-20 21:25:00,
2013-03-20 15:30:00,55.4,29.5,29.54,SSE,157,9.0,21.0,37,0.00,,,0.00,320,Wunderground v.1.15,2013-03-20 21:30:00,
2013-03-20 15:35:00,54.3,32.8,29.53,South,171,11.0,24.0,44,0.00,,,0.00,192,Wunderground v.1.15,2013-03-20 21:35:00,
2013-03-20 15:40:00,53.3,32.5,29.53,South,186,17.0,23.0,45,0.00,,,0.00,190,Wunderground v.1.15,2013-03-20 21:40:00,
2013-03-20 15:46:00,52.4,32.2,29.53,SE,138,17.0,25.0,46,0.00,,,0.00,218,Wunderground v.1.15,2013-03-20 21:46:00,
2013-03-20 15:51:00,52.5,32.3,29.53,SSE,147,10.0,21.0,46,0.00,,,0.00,132,Wunderground v.1.15,2013-03-20 21:51:00,
2013-03-20 15:56:00,52.4,32.2,29.53,SSE,155,15.0,23.0,46,0.00,,,0.00,167,Wunderground v.1.15,2013-03-20 21:56:00,
2013-03-20 16:01:00,52.6,32.4,29.53,SSE,167,11.0,20.0,46,0.00,,,0.00,148,Wunderground v.1.15,2013-03-20 22:01:00,
2013-03-20 16:07:00,52.6,31.8,29.53,SSE,163,10.0,20.0,45,0.00,,,0.00,116,Wunderground v.1.15,2013-03-20 22:07:00,
2013-03-20 16:12:00,52.5,31.8,29.53,South,169,19.0,20.0,45,0.00,,,0.00,120,Wunderground v.1.15,2013-03-20 22:12:00,
2013-03-20 16:17:00,52.0,34.4,29.53,SSE,150,9.0,21.0,51,0.00,,,0.00,155,Wunderground v.1.15,2013-03-20 22:17:00,
2013-03-20 16:22:00,51.5,35.4,29.53,SW,219,11.0,11.0,54,0.00,,,0.00,253,Wunderground v.1.15,2013-03-20 22:22:00,
2013-03-20 16:27:00,52.0,33.9,29.53,SSW,210,18.0,18.0,50,0.00,,,0.00,594,Wunderground v.1.15,2013-03-20 22:27:00,
2013-03-20 16:32:00,52.9,33.7,29.52,SSE,165,7.0,17.0,48,0.00,,,0.00,364,Wunderground v.1.15,2013-03-20 22:32:00,
2013-03-20 16:37:00,53.5,33.7,29.52,SSW,196,8.0,17.0,47,0.00,,,0.00,316,Wunderground v.1.15,2013-03-20 22:37:00,
2013-03-20 16:42:00,54.3,33.4,29.52,South,178,5.0,15.0,45,0.00,,,0.00,745,Wunderground v.1.15,2013-03-20 22:42:00,
2013-03-20 16:47:00,54.8,32.7,29.51,SSE,155,7.0,15.0,43,0.00,,,0.00,700,Wunderground v.1.15,2013-03-20 22:47:00,
2013-03-20 16:52:00,55.1,32.4,29.51,SSE,152,8.0,16.0,42,0.00,,,0.00,696,Wunderground v.1.15,2013-03-20 22:52:00,
2013-03-20 16:57:00,55.4,32.7,29.51,SE,146,6.0,17.0,42,0.00,,,0.00,563,Wunderground v.1.15,2013-03-20 22:57:00,
2013-03-20 17:02:00,55.3,32.0,29.49,South,174,13.0,15.0,41,0.00,,,0.00,559,Wunderground v.1.15,2013-03-20 23:02:00,
2013-03-20 17:07:00,55.4,32.1,29.49,SSE,153,10.0,17.0,41,0.00,,,0.00,475,Wunderground v.1.15,2013-03-20 23:07:00,
2013-03-20 17:13:00,55.1,32.4,29.49,South,180,9.0,14.0,42,0.00,,,0.00,202,Wunderground v.1.15,2013-03-20 23:13:00,
2013-03-20 17:18:00,54.8,32.1,29.49,SW,218,4.0,14.0,42,0.00,,,0.00,211,Wunderground v.1.15,2013-03-20 23:18:00,
2013-03-20 17:23:00,54.3,31.7,29.49,SSE,159,7.0,11.0,42,0.00,,,0.00,216,Wunderground v.1.15,2013-03-20 23:23:00,
2013-03-20 17:28:00,54.0,32.0,29.49,SSE,156,5.0,11.0,43,0.00,,,0.00,199,Wunderground v.1.15,2013-03-20 23:28:00,
2013-03-20 17:33:00,53.7,31.7,29.49,SSW,196,4.0,9.0,43,0.00,,,0.00,197,Wunderground v.1.15,2013-03-20 23:33:00,
2013-03-20 17:38:00,53.7,31.7,29.49,SW,225,5.0,9.0,43,0.00,,,0.00,199,Wunderground v.1.15,2013-03-20 23:38:00,
2013-03-20 17:43:00,54.1,32.6,29.49,SW,236,0.0,11.0,44,0.00,,,0.00,352,Wunderground v.1.15,2013-03-20 23:43:00,
2013-03-20 17:48:00,54.1,32.1,29.47,WSW,238,2.0,11.0,43,0.00,,,0.00,167,Wunderground v.1.15,2013-03-20 23:48:00,
2013-03-20 17:53:00,53.7,31.7,29.47,South,169,5.0,8.0,43,0.00,,,0.00,162,Wunderground v.1.15,2013-03-20 23:53:00,
2013-03-20 17:58:00,53.5,32.1,29.47,SSW,197,10.0,11.0,44,0.00,,,0.00,323,Wunderground v.1.15,2013-03-20 23:58:00,
2013-03-20 18:04:00,53.9,31.9,29.46,SE,146,12.0,20.0,43,0.00,,,0.00,302,Wunderground v.1.15,2013-03-21 00:04:00,
2013-03-20 18:09:00,54.2,32.2,29.46,SSW,194,5.0,20.0,43,0.00,,,0.00,267,Wunderground v.1.15,2013-03-21 00:09:00,
2013-03-20 18:14:00,54.2,32.2,29.46,SE,142,12.0,17.0,43,0.00,,,0.00,232,Wunderground v.1.15,2013-03-21 00:14:00,
2013-03-20 18:19:00,53.3,31.4,29.45,South,175,12.0,23.0,43,0.00,,,0.00,207,Wunderground v.1.15,2013-03-21 00:19:00,
2013-03-20 18:24:00,52.5,31.2,29.45,SSE,159,12.0,20.0,44,0.00,,,0.00,188,Wunderground v.1.15,2013-03-21 00:24:00,
2013-03-20 18:29:00,52.4,31.7,29.45,SSE,156,12.0,20.0,45,0.00,,,0.00,172,Wunderground v.1.15,2013-03-21 00:29:00,
2013-03-20 18:34:00,52.0,32.4,29.45,South,171,22.0,22.0,47,0.00,,,0.00,54,Wunderground v.1.15,2013-03-21 00:34:00,
2013-03-20 18:39:00,51.4,31.8,29.45,SSE,168,10.0,22.0,47,0.00,,,0.00,137,Wunderground v.1.15,2013-03-21 00:39:00,
2013-03-20 18:44:00,51.1,32.1,29.45,SE,140,8.0,20.0,48,0.00,,,0.00,128,Wunderground v.1.15,2013-03-21 00:44:00,
2013-03-20 18:49:00,51.0,32.0,29.45,South,189,6.0,20.0,48,0.00,,,0.00,113,Wunderground v.1.15,2013-03-21 00:49:00,
2013-03-20 18:54:00,50.9,31.9,29.45,South,176,7.0,23.0,48,0.00,,,0.00,56,Wunderground v.1.15,2013-03-21 00:54:00,
2013-03-20 18:59:00,50.6,32.1,29.45,SSE,161,9.0,23.0,49,0.00,,,0.00,49,Wunderground v.1.15,2013-03-21 00:59:00,
2013-03-20 19:04:00,50.1,31.7,29.45,SE,141,13.0,18.0,49,0.00,,,0.00,26,Wunderground v.1.15,2013-03-21 01:04:00,
2013-03-20 19:09:00,49.6,31.7,29.45,South,185,15.0,19.0,50,0.00,,,0.00,21,Wunderground v.1.15,2013-03-21 01:09:00,
2013-03-20 19:14:00,49.2,31.8,29.45,SSE,152,14.0,17.0,51,0.00,,,0.00,12,Wunderground v.1.15,2013-03-21 01:14:00,
2013-03-20 19:19:00,48.7,31.8,29.45,South,172,6.0,17.0,52,0.00,,,0.00,9,Wunderground v.1.15,2013-03-21 01:19:00,
2013-03-20 19:24:00,48.5,31.7,29.45,SE,144,9.0,15.0,52,0.00,,,0.00,9,Wunderground v.1.15,2013-03-21 01:24:00,
2013-03-20 19:29:00,48.3,31.9,29.45,SSE,160,6.0,15.0,53,0.00,,,0.00,7,Wunderground v.1.15,2013-03-21 01:29:00,
2013-03-20 19:34:00,48.2,31.9,29.44,SE,138,10.0,13.0,53,0.00,,,0.00,5,Wunderground v.1.15,2013-03-21 01:34:00,
2013-03-20 19:39:00,48.2,31.9,29.44,SE,144,13.0,16.0,53,0.00,,,0.00,0,Wunderground v.1.15,2013-03-21 01:39:00,
2013-03-20 19:44:00,48.1,31.8,29.44,South,186,5.0,15.0,53,0.00,,,0.00,0,Wunderground v.1.15,2013-03-21 01:44:00,
2013-03-20 19:49:00,47.9,32.0,29.46,SSE,151,4.0,15.0,54,0.00,,,0.00,0,Wunderground v.1.15,2013-03-21 01:49:00,
2013-03-20 19:54:00,47.0,31.7,29.46,NNW,336,16.0,24.0,55,0.00,,,0.00,0,Wunderground v.1.15,2013-03-21 01:54:00,
2013-03-20 19:59:00,41.6,30.7,29.46,NNW,344,18.0,31.0,65,0.00,,,0.00,0,Wunderground v.1.15,2013-03-21 01:59:00,
2013-03-20 20:04:00,39.5,30.5,29.49,WNW,292,19.0,37.0,70,0.00,,,0.00,0,Wunderground v.1.15,2013-03-21 02:04:00,
2013-03-20 20:09:00,38.7,30.8,29.49,WNW,296,18.0,39.0,73,0.00,,,0.00,0,Wunderground v.1.15,2013-03-21 02:09:00,
2013-03-20 20:14:00,38.2,31.3,29.49,WNW,300,19.0,38.0,76,0.00,,,0.00,0,Wunderground v.1.15,2013-03-21 02:14:00,
2013-03-20 20:19:00,37.1,31.2,29.52,NW,306,20.0,38.0,79,0.00,,,0.00,0,Wunderground v.1.15,2013-03-21 02:19:00,
2013-03-20 20:24:00,36.2,30.9,29.52,WNW,296,25.0,31.0,81,0.00,,,0.00,0,Wunderground v.1.15,2013-03-21 02:24:00,
2013-03-20 20:29:00,35.2,30.6,29.52,NW,313,14.0,34.0,83,0.00,,,0.00,0,Wunderground v.1.15,2013-03-21 02:29:00,
2013-03-20 20:34:00,34.5,30.5,29.53,NW,321,13.0,28.0,85,0.00,,,0.00,0,Wunderground v.1.15,2013-03-21 02:34:00,
2013-03-20 20:39:00,34.4,30.6,29.53,NW,323,13.0,28.0,86,0.00,,,0.00,0,Wunderground v.1.15,2013-03-21 02:39:00,
2013-03-20 20:44:00,34.4,30.9,29.53,NNW,327,17.0,27.0,87,0.00,,,0.00,0,Wunderground v.1.15,2013-03-21 02:44:00,
2013-03-20 20:49:00,34.4,31.2,29.56,NNW,336,15.0,27.0,88,0.00,,,0.00,0,Wunderground v.1.15,2013-03-21 02:49:00,
2013-03-20 20:54:00,34.3,31.1,29.56,NW,323,15.0,25.0,88,0.00,,,0.00,0,Wunderground v.1.15,2013-03-21 02:54:00,
2013-03-20 20:59:00,34.0,30.8,29.56,NW,309,14.0,14.0,88,0.00,,,0.00,0,Wunderground v.1.15,2013-03-21 02:59:00,
2013-03-20 21:04:00,33.9,30.7,29.58,WNW,296,15.0,22.0,88,0.00,,,0.00,0,Wunderground v.1.15,2013-03-21 03:04:00,
2013-03-20 21:09:00,33.7,30.5,29.58,NW,317,8.0,13.0,88,0.00,,,0.00,0,Wunderground v.1.15,2013-03-21 03:09:00,
2013-03-20 21:14:00,33.4,30.2,29.58,NW,324,20.0,24.0,88,0.00,,,0.00,0,Wunderground v.1.15,2013-03-21 03:14:00,
2013-03-20 21:19:00,33.0,29.8,29.58,NNW,336,11.0,12.0,88,0.00,,,0.00,0,Wunderground v.1.15,2013-03-21 03:19:00,
2013-03-20 21:24:00,32.7,29.5,29.58,North,355,13.0,26.0,88,0.00,,,0.00,0,Wunderground v.1.15,2013-03-21 03:24:00,
2013-03-20 21:29:00,32.6,29.4,29.58,NW,326,10.0,13.0,88,0.00,,,0.00,0,Wunderground v.1.15,2013-03-21 03:29:00,
2013-03-20 21:34:00,32.4,29.2,29.59,NNW,333,11.0,25.0,88,0.00,,,0.00,0,Wunderground v.1.15,2013-03-21 03:34:00,
2013-03-20 21:39:00,32.4,29.2,29.59,North,11,17.0,25.0,88,0.00,,,0.00,0,Wunderground v.1.15,2013-03-21 03:39:00,
2013-03-20 21:44:00,32.4,29.2,29.59,NNE,19,11.0,23.0,88,0.00,,,0.00,0,Wunderground v.1.15,2013-03-21 03:44:00,
2013-03-20 21:49:00,32.5,29.3,29.58,North,10,13.0,23.0,88,0.00,,,0.00,0,Wunderground v.1.15,2013-03-21 03:49:00,
2013-03-20 21:55:00,32.6,29.4,29.58,NNW,327,6.0,19.0,88,0.00,,,0.00,0,Wunderground v.1.15,2013-03-21 03:55:00,
2013-03-20 22:00:00,32.7,29.5,29.58,NNW,340,9.0,10.0,88,0.00,,,0.00,0,Wunderground v.1.15,2013-03-21 04:00:00,
2013-03-20 22:05:00,32.8,29.4,29.59,NNW,338,17.0,21.0,87,0.00,,,0.00,0,Wunderground v.1.15,2013-03-21 04:05:00,
2013-03-20 22:10:00,33.0,29.6,29.59,NNW,348,14.0,21.0,87,0.00,,,0.00,0,Wunderground v.1.15,2013-03-21 04:10:00,
2013-03-20 22:15:00,33.0,29.3,29.59,NNW,336,15.0,23.0,86,0.00,,,0.00,0,Wunderground v.1.15,2013-03-21 04:15:00,
2013-03-20 22:20:00,33.0,29.3,29.59,NW,326,12.0,15.0,86,0.00,,,0.00,0,Wunderground v.1.15,2013-03-21 04:20:00,
2013-03-20 22:25:00,33.0,29.3,29.59,NNW,344,11.0,17.0,86,0.00,,,0.00,0,Wunderground v.1.15,2013-03-21 04:25:00,
2013-03-20 22:30:00,32.9,29.2,29.59,NNW,340,11.0,14.0,86,0.00,,,0.00,0,Wunderground v.1.15,2013-03-21 04:30:00,
2013-03-20 22:35:00,32.8,29.1,29.59,NNW,327,12.0,15.0,86,0.00,,,0.00,0,Wunderground v.1.15,2013-03-21 04:35:00,
2013-03-20 22:40:00,32.7,29.0,29.59,NNW,334,10.0,11.0,86,0.00,,,0.00,0,Wunderground v.1.15,2013-03-21 04:40:00,
2013-03-20 22:45:00,32.7,29.0,29.59,North,349,8.0,14.0,86,0.00,,,0.00,0,Wunderground v.1.15,2013-03-21 04:45:00,
2013-03-20 22:50:00,32.8,29.1,29.60,WNW,288,14.0,14.0,86,0.00,,,0.00,0,Wunderground v.1.15,2013-03-21 04:50:00,
2013-03-20 22:55:00,33.0,29.3,29.60,NW,313,11.0,14.0,86,0.00,,,0.00,0,Wunderground v.1.15,2013-03-21 04:55:00,
2013-03-20 23:00:00,33.0,29.0,29.60,NNW,341,10.0,14.0,85,0.00,,,0.00,0,Wunderground v.1.15,2013-03-21 05:00:00,
2013-03-20 23:05:00,33.0,29.0,29.60,NW,325,9.0,14.0,85,0.00,,,0.00,0,Wunderground v.1.15,2013-03-21 05:05:00,
2013-03-20 23:10:00,33.0,29.0,29.60,NW,318,10.0,11.0,85,0.00,,,0.00,0,Wunderground v.1.15,2013-03-21 05:10:00,
2013-03-20 23:15:00,33.0,29.0,29.60,NNW,336,5.0,13.0,85,0.00,,,0.00,0,Wunderground v.1.15,2013-03-21 05:15:00,
2013-03-20 23:20:00,33.0,29.0,29.60,NNW,327,4.0,7.0,85,0.00,,,0.00,0,Wunderground v.1.15,2013-03-21 05:20:00,
2013-03-20 23:25:00,33.0,29.0,29.60,NW,325,2.0,7.0,85,0.00,,,0.00,0,Wunderground v.1.15,2013-03-21 05:25:00,
2013-03-20 23:30:00,33.0,29.0,29.60,NW,309,2.0,5.0,85,0.00,,,0.00,0,Wunderground v.1.15,2013-03-21 05:30:00,
2013-03-20 23:35:00,32.9,28.9,29.60,West,267,0.0,7.0,85,0.00,,,0.00,0,Wunderground v.1.15,2013-03-21 05:35:00,
2013-03-20 23:40:00,32.8,28.8,29.60,West,277,3.0,6.0,85,0.00,,,0.00,0,Wunderground v.1.15,2013-03-21 05:40:00,
2013-03-20 23:45:00,32.9,28.6,29.60,NNW,341,4.0,9.0,84,0.00,,,0.00,0,Wunderground v.1.15,2013-03-21 05:45:00,
2013-03-20 23:50:00,32.9,28.6,29.60,NNW,340,0.0,4.0,84,0.00,,,0.00,0,Wunderground v.1.15,2013-03-21 05:50:00,
2013-03-20 23:55:00,32.9,28.3,29.60,NNW,340,3.0,4.0,83,0.00,,,0.00,0,Wunderground v.1.15,2013-03-21 05:55:00,